sat.trackr.live / text

‹ back to catalog

FOSSASAT-2E25

NORAD 68478 · 2026-067BQ

PAYLOAD ACTIVE UNKNOWN

§ Identity

Operator
Country
SPN
Launch date
2026-03-30
Launch site
AFWTR
Launch vehicle
Mass (kg)
RCS (m²)

External: N2YO · Heavens-Above · Gunter

§ Orbital elements

Epoch: 2026-09-19T15:31:54.453792Z

Period
96.50 min
Inclination
97.7702°
Eccentricity
0.0001943
Mean motion
14.92270877 rev/d
Perigee alt
589.5 km
Apogee alt
592.2 km
Semi-major
6,969.0 km
B*
5.8146e-5
RAAN
219.5870°
Arg perigee
19.5042°
Mean anomaly
340.6251°
Rev number
2,581

§ Raw data

FOSSASAT-2E251 68478U 26067BQ  26262.64715803  .00000537  00000+0  58146-4 0  99982 68478  97.7702 219.5870 0001943  19.5042 340.6251 14.92270877 25811

JSON: /api/v1/satellites/68478 · /tle

For live sub-satellite position, see the globe view (requires WebGL).

§ Visibility from observer

Set your observer location to see the next 7 days of passes ≥ 10°. The values pass through the URL so the page stays shareable.

No JS? Fill the form by hand. The geolocation button needs JavaScript.